| time (UTC) | temp C | wind direction | speed KPH | gust KPH | rain 1hr cm | rain 24hr cm | rain mn cm | humidity % | barometer mb |
| 20260504141026 | 15 | 334 | 24.1 | 38.6 | 0.00 | 1.19 | 0.23 | 35 | 1018.0 |
| 20260504081023 | 13 | 341 | 22.5 | 46.7 | 0.00 | 1.60 | 0.23 | 57 | 1018.7 |
| 20260504045025 | 11 | 5 | 19.3 | 32.2 | 0.00 | 3.81 | 0.20 | 65 | 1017.2 |
| 20260504044018 | 11 | 333 | 17.7 | 32.2 | 0.00 | 3.81 | 0.20 | 66 | 1017.3 |
| 20260504043030 | 11 | 334 | 14.5 | 33.8 | 0.00 | 3.81 | 0.20 | 67 | 1017.2 |
| 20260504042027 | 11 | 355 | 20.9 | 30.6 | 0.00 | 3.81 | 0.20 | 68 | 1017.1 |
| 20260504041020 | 11 | 328 | 19.3 | 27.4 | 0.00 | 3.81 | 0.20 | 68 | 1017.0 |
| 20260504040033 | 11 | 348 | 20.9 | 27.4 | 0.00 | 3.81 | 0.20 | 68 | 1016.9 |
| 20260504035030 | 11 | 347 | 14.5 | 27.4 | 0.00 | 3.99 | 0.20 | 68 | 1016.8 |
| 20260504034021 | 11 | 348 | 12.9 | 29.0 | 0.00 | 3.99 | 0.20 | 68 | 1016.8 |
| 20260504033034 | 11 | 329 | 16.1 | 27.4 | 0.00 | 3.99 | 0.20 | 67 | 1016.7 |
| 20260504032026 | 11 | 345 | 17.7 | 27.4 | 0.00 | 3.99 | 0.20 | 67 | 1016.6 |
| 20260504031042 | 11 | 338 | 16.1 | 30.6 | 0.00 | 3.99 | 0.20 | 67 | 1016.6 |
| 20260504030031 | 11 | 296 | 19.3 | 30.6 | 0.00 | 3.99 | 0.20 | 67 | 1016.5 |
| 20260504025025 | 11 | 327 | 22.5 | 33.8 | 0.00 | 4.39 | 0.20 | 66 | 1016.3 |
| 20260504024018 | 11 | 301 | 19.3 | 35.4 | 0.00 | 4.39 | 0.20 | 66 | 1016.3 |
| 20260504023034 | 11 | 348 | 20.9 | 32.2 | 0.00 | 4.39 | 0.20 | 65 | 1016.4 |
| 20260504022027 | 11 | 294 | 24.1 | 35.4 | 0.00 | 4.39 | 0.20 | 64 | 1016.3 |
| 20260504021018 | 11 | 9 | 20.9 | 33.8 | 0.00 | 4.39 | 0.20 | 64 | 1016.2 |
| 20260504020032 | 11 | 20 | 20.9 | 37.0 | 0.00 | 4.39 | 0.20 | 64 | 1016.3 |
| 20260504015029 | 11 | 339 | 24.1 | 38.6 | 0.00 | 4.50 | 0.20 | 64 | 1016.3 |
| 20260504014022 | 11 | 327 | 24.1 | 38.6 | 0.00 | 4.50 | 0.20 | 65 | 1016.4 |
| 20260504013055 | 11 | 9 | 24.1 | 37.0 | 0.00 | 4.50 | 0.20 | 64 | 1016.3 |
| 20260504012043 | 11 | 20 | 25.7 | 38.6 | 0.00 | 4.50 | 0.20 | 65 | 1016.3 |
| 20260504011033 | 11 | 333 | 24.1 | 41.8 | 0.00 | 4.50 | 0.20 | 65 | 1016.3 |
| 20260504010029 | 11 | 342 | 20.9 | 35.4 | 0.00 | 4.50 | 0.20 | 65 | 1016.4 |
| 20260504005019 | 11 | 343 | 22.5 | 43.5 | 0.00 | 4.60 | 0.20 | 65 | 1016.2 |
| 20260504004030 | 11 | 313 | 25.7 | 48.3 | 0.00 | 4.60 | 0.20 | 65 | 1016.0 |
| 20260504003027 | 11 | 350 | 24.1 | 37.0 | 0.00 | 4.60 | 0.20 | 65 | 1016.3 |
| 20260504002040 | 11 | 5 | 25.7 | 41.8 | 0.00 | 4.60 | 0.20 | 65 | 1016.1 |
| 20260504001031 | 11 | 311 | 24.1 | 40.2 | 0.00 | 4.60 | 0.20 | 65 | 1016.0 |
| 20260504000025 | 11 | 314 | 24.1 | 43.5 | 0.00 | 4.60 | 0.20 | 64 | 1016.0 |
| 20260503235057 | 11 | 360 | 29.0 | 41.8 | 0.00 | 4.60 | 0.20 | 63 | 1016.0 |
| 20260503234052 | 11 | 309 | 24.1 | 41.8 | 0.00 | 4.60 | 0.20 | 65 | 1016.1 |
| 20260503233024 | 11 | 355 | 25.7 | 41.8 | 0.00 | 4.60 | 0.20 | 65 | 1016.1 |
| 20260503232017 | 11 | 346 | 25.7 | 43.5 | 0.00 | 4.60 | 0.20 | 65 | 1016.1 |
| 20260503231029 | 11 | 331 | 29.0 | 45.1 | 0.00 | 4.60 | 0.20 | 65 | 1016.1 |
| 20260503230044 | 11 | 360 | 25.7 | 51.5 | 0.00 | 4.60 | 0.20 | 65 | 1016.2 |
| 20260503225035 | 11 | 318 | 25.7 | 40.2 | 0.20 | 4.70 | 0.20 | 66 | 1016.2 |
| 20260503224028 | 11 | 327 | 27.4 | 41.8 | 0.20 | 4.70 | 0.20 | 67 | 1016.2 |
| 20260503223021 | 11 | 351 | 29.0 | 43.5 | 0.30 | 4.70 | 0.20 | 68 | 1016.2 |
| 20260503222038 | 11 | 308 | 24.1 | 37.0 | 0.71 | 4.70 | 0.20 | 71 | 1016.3 |
| 20260503221027 | 10 | 338 | 22.5 | 37.0 | 0.99 | 4.70 | 0.20 | 74 | 1016.5 |
| 20260503220037 | 10 | 341 | 19.3 | 33.8 | 0.99 | 4.70 | 0.20 | 76 | 1016.6 |
| 20260503215028 | 10 | 319 | 24.1 | 38.6 | 0.79 | 4.60 | 0.15 | 74 | 1016.4 |
| 20260503214042 | 10 | 355 | 19.3 | 33.8 | 0.79 | 4.60 | 0.15 | 77 | 1016.6 |
| 20260503213017 | 10 | 348 | 19.3 | 32.2 | 0.71 | 4.50 | 0.15 | 76 | 1016.7 |
| 20260503212029 | 11 | 331 | 20.9 | 33.8 | 0.30 | 4.09 | 0.05 | 72 | 1016.6 |
| 20260503211021 | 11 | 326 | 19.3 | 32.2 | 0.00 | 3.81 | 0.00 | 68 | 1016.5 |
| 20260503210031 | 11 | 327 | 19.3 | 29.0 | 0.00 | 3.81 | 0.00 | 68 | 1016.6 |
| 20260503205027 | 11 | 360 | 19.3 | 32.2 | 0.00 | 3.99 | 0.76 | 67 | 1016.4 |
| 20260503204037 | 11 | 315 | 14.5 | 33.8 | 0.00 | 3.99 | 0.76 | 65 | 1016.1 |
| 20260503203028 | 11 | 339 | 11.3 | 27.4 | 0.00 | 3.99 | 0.76 | 65 | 1016.2 |
| 20260503202021 | 11 | 323 | 12.9 | 30.6 | 0.00 | 3.99 | 0.76 | 65 | 1016.3 |
| 20260503201036 | 11 | 329 | 17.7 | 32.2 | 0.00 | 3.99 | 0.76 | 65 | 1016.2 |
| 20260503200048 | 11 | 289 | 22.5 | 35.4 | 0.00 | 3.99 | 0.76 | 63 | 1015.9 |
| 20260503195019 | 11 | 31 | 24.1 | 40.2 | 0.00 | 3.99 | 0.76 | 61 | 1015.8 |
| 20260503194053 | 11 | 341 | 29.0 | 46.7 | 0.00 | 3.99 | 0.76 | 61 | 1015.6 |
| 20260503193028 | 11 | 342 | 16.1 | 30.6 | 0.00 | 3.99 | 0.76 | 63 | 1015.9 |
| 20260503192019 | 11 | 290 | 14.5 | 29.0 | 0.00 | 3.99 | 0.76 | 63 | 1016.0 |
| 20260503191031 | 11 | 304 | 12.9 | 30.6 | 0.00 | 3.99 | 0.76 | 61 | 1016.0 |
| 20260503190023 | 11 | 347 | 17.7 | 38.6 | 0.00 | 3.99 | 0.76 | 60 | 1015.9 |
| 20260503185020 | 11 | 342 | 24.1 | 33.8 | 0.00 | 3.99 | 0.76 | 60 | 1015.8 |
| 20260503184052 | 10 | 339 | 12.9 | 20.9 | 0.00 | 3.99 | 0.76 | 65 | 1015.8 |
| 20260503183024 | 10 | 13 | 9.7 | 22.5 | 0.00 | 3.99 | 0.76 | 69 | 1015.9 |
| 20260503182035 | 10 | 313 | 4.8 | 16.1 | 0.00 | 3.99 | 0.76 | 70 | 1015.9 |
| 20260503181031 | 10 | 321 | 8.0 | 17.7 | 0.00 | 3.99 | 0.76 | 69 | 1015.8 |
| 20260503180024 | 10 | 43 | 9.7 | 20.9 | 0.00 | 3.99 | 0.76 | 67 | 1015.8 |
| 20260503175056 | 10 | 335 | 6.4 | 24.1 | 0.00 | 3.99 | 0.76 | 66 | 1015.9 |
| 20260503174027 | 10 | 313 | 16.1 | 38.6 | 0.00 | 3.99 | 0.76 | 66 | 1015.8 |
| 20260503173022 | 11 | 332 | 22.5 | 38.6 | 0.00 | 3.99 | 0.76 | 65 | 1015.7 |
| 20260503172034 | 11 | 285 | 22.5 | 37.0 | 0.00 | 3.99 | 0.76 | 61 | 1015.2 |
| 20260503171025 | 11 | 337 | 19.3 | 35.4 | 0.00 | 3.99 | 0.76 | 62 | 1015.3 |